[[{"header":{"parameterUnit":"m.s-1","parameterCategory":1,"la1":30.2991,"la2":30.254,"lo1":-89.0895,"lo2":-89.0444,"dy":0.0017,"dx":0.0017,"nx":28,"ny":28,"refTime":"2024-06-20T21:00:00:Z","depth":0,"parameterNumber":2,"parameterNumberName":"U-component_of_WINDS"},"data":[0,0,0,0,0,0,0,0,0,0,0,0,0,0,0,0,0,0,0,0,0,0,0,0,0,0,0,0,0,0,0,0,0,0,0,0,0,0,0,0,0,0,0,0,0,0,0,0,0,0,0,0,0,0,0,0,0,0,0.5755,0.5756,0,0.5894,0.5896,0.5898,0.5965,0.5965,0.5965,0.5965,0.6108,0.6112,0.6115,0,0,0,0,0,0,0,0,0,0,0,0,0,0.5544,0.5548,0.5755,0.5756,0.5758,0.5894,0.5896,0.5898,0.5965,0.5965,0.5965,0.5965,0.6107,0.6111,0.6116,0,0,0,0,0,0,0,0,0,0,0,0,0,0.5655,0.5549,0.5754,0.5808,0.5814,0.5894,0.5896,0.5899,0.5965,0.5965,0.5965,0.5965,0.6105,0.6111,0.6116,0.6153,0,0,0.6134,0.6136,0,0,0,0,0,0,0,0,0.5648,0.5662,0.5798,0.5805,0.5812,0.5912,0.5874,0.5984,0.5965,0.5908,0.5965,0.5965,0.6043,0.6054,0.608,0.616,0.6166,0.6134,0.6138,0.614,0.6142,0,0,0,0,0,0,0,0.5641,0.5657,0.581,0.58,0.5808,0.5825,0.584,0.5895,0.5974,0.5913,0.5918,0.5934,0.6046,0.6074,0.6084,0.6168,0.6134,0.6139,0.6143,0.6145,0.6283,0.6283,0,0,0,0,0,0,0.5625,0.565,0.5806,0.5814,0.5728,0.5828,0.5846,0.588,0.5974,0.5988,0.5934,0.5936,0.6064,0.6077,0.6089,0.6137,0.614,0.6146,0.6149,0.6282,0.6283,0.6283,0,0,0,0,0,0,0.562,0.5638,0.58,0.5734,0.5756,0.5832,0.587,0.5883,0.5911,0.5989,0.6003,0.5948,0.6065,0.6081,0.6136,0.6143,0.6148,0.6154,0.6282,0.6282,0.6283,0.6234,0,0,0,0,0,0,0.5613,0.5636,0.5651,0.5733,0.5759,0.5845,0.587,0.5886,0.5921,0.5926,0.6006,0.602,0.6066,0.6127,0.6142,0.6151,0.6158,0.6282,0.6282,0.6283,0.6235,0.6233,0.623,0,0,0,0,0,0.5606,0.5632,0.5651,0.567,0.578,0.5845,0.586,0.5913,0.5921,0.5937,0.5986,0.6017,0.614,0.6132,0.6149,0.616,0.6282,0.6282,0.6283,0.6237,0.6233,0.623,0,0,0,0,0,0,0.5549,0.5644,0.5667,0.572,0.5774,0.5857,0.5878,0.5908,0.5961,0.5963,0.6026,0.6044,0.6093,0.6132,0.6122,0.62,0.6214,0.6217,0.6173,0.617,0.6168,0.6157,0.6163,0,0,0,0,0,0.5542,0.5588,0.5669,0.5709,0.5734,0.5801,0.5832,0.5868,0.5926,0.5949,0.6004,0.6059,0.611,0.6142,0.6193,0.6241,0.6259,0.6257,0.6254,0.6252,0.6255,0.6281,0.6281,0.6284,0.6284,0.6284,0,0,0.553,0.5588,0.5613,0.5699,0.5745,0.579,0.582,0.5867,0.5902,0.5957,0.6012,0.6053,0.6119,0.617,0.6195,0.6204,0.6257,0.6252,0.625,0.6254,0.6282,0.6281,0.6281,0.6285,0.6285,0.6284,0,0,0.5531,0.5579,0.5617,0.5662,0.5731,0.5775,0.5784,0.5861,0.5891,0.5947,0.5989,0.603,0.6117,0.6161,0.6195,0.621,0.6239,0.6225,0.6212,0.6237,0.6237,0.6237,0.6241,0.6242,0.6227,0.6227,0.6227,0,0.5507,0.5578,0.5633,0.5677,0.5713,0.5764,0.5802,0.5843,0.5925,0.5949,0.5957,0.6066,0.6114,0.6175,0.6178,0.6204,0.6216,0.6216,0.6232,0.6233,0.6234,0.6239,0.624,0.6225,0.6225,0.6225,0.6225,0,0.5544,0.5592,0.5614,0.5692,0.573,0.5771,0.5831,0.5863,0.5895,0.5938,0.5993,0.6052,0.6115,0.6132,0.6164,0.6198,0.6201,0.622,0.6235,0.623,0.6236,0.6238,0.6221,0.6222,0.6223,0.6223,0,0,0.5515,0.562,0.5628,0.5663,0.5741,0.5779,0.5822,0.5883,0.5909,0.5963,0.6,0.6071,0.6088,0.6126,0.6163,0.6185,0.6192,0.6202,0.6204,0.6197,0.6231,0.6216,0.6218,0.6211,0.6212,0.6212,0.6225,0,0.5526,0.5606,0.5655,0.5714,0.5759,0.5806,0.5843,0.5895,0.5935,0.5978,0.6022,0.6071,0.6091,0.6114,0.6138,0.6186,0.6199,0.6186,0.6246,0.6247,0.6228,0.6221,0.6206,0.6216,0.6228,0.6228,0.6229,0,0.5551,0.5603,0.5666,0.5738,0.5759,0.5791,0.585,0.5891,0.595,0.5977,0.6019,0.6056,0.6101,0.6111,0.6174,0.6164,0.6191,0.6218,0.622,0.6228,0.6238,0.6228,0.622,0.6221,0.6233,0.6233,0.6232,0,0.5523,0.5609,0.5657,0.5686,0.5771,0.5792,0.5829,0.5887,0.5921,0.5972,0.5994,0.605,0.6081,0.6123,0.6173,0.6176,0.6231,0.6246,0.6254,0.6253,0.6265,0.6263,0.626,0.6281,0.6281,0.6281,0.6281,0,0.5531,0.5567,0.5645,0.5675,0.5717,0.5773,0.5813,0.5853,0.5904,0.5942,0.5986,0.6021,0.6085,0.6127,0.6167,0.6212,0.6226,0.6249,0.6259,0.6245,0.6242,0.6264,0.6265,0.6282,0.6282,0.6282,0.6282,0,0.5507,0.5561,0.5617,0.5692,0.5712,0.5739,0.5804,0.5834,0.5875,0.5922,0.5936,0.6002,0.6053,0.6107,0.6177,0.6204,0.6247,0.6262,0.6227,0.6233,0.6239,0.6237,0.625,0.6254,0.6272,0.6272,0.6272,0,0.5509,0.5538,0.5616,0.5644,0.5679,0.5725,0.5758,0.5814,0.5847,0.5914,0.5936,0.599,0.6037,0.6116,0.617,0.6223,0.6239,0.6239,0.6247,0.6232,0.6238,0.6236,0.6239,0.6237,0.6237,0.6236,0.6236,0,0.5506,0.5531,0.5578,0.5633,0.5672,0.5719,0.5767,0.5787,0.5852,0.5887,0.5939,0.5975,0.6046,0.6099,0.6158,0.6195,0.6226,0.6233,0.6238,0.6224,0.6203,0.6214,0.622,0.6233,0.6233,0.6233,0.6233,0.6234,0.5495,0.5523,0.5581,0.5632,0.5673,0.5717,0.5748,0.5793,0.5838,0.59,0.5929,0.5982,0.6038,0.612,0.6156,0.6197,0.6206,0.6213,0.6215,0.6216,0.6212,0.6195,0.6208,0.6208,0.6208,0.6208,0.6208,0,0.5494,0.5534,0.558,0.5645,0.5684,0.5709,0.5763,0.5794,0.584,0.5889,0.5933,0.5993,0.6044,0.61,0.6154,0.6176,0.6192,0.6189,0.6188,0.6195,0.6201,0.6191,0.6175,0.6175,0.6175,0.6175,0.6175,0.6175,0.5499,0.5546,0.5577,0.5645,0.5684,0.5736,0.5764,0.5804,0.5844,0.5908,0.595,0.5987,0.6038,0.6096,0.6144,0.6159,0.6176,0.6169,0.6188,0.6193,0.6195,0.6198,0.6189,0.6173,0.6173,0.6179,0.6179,0.6179]},{"header":{"parameterUnit":"m.s-1","parameterCategory":1,"la1":30.2991,"la2":30.254,"lo1":-89.0895,"lo2":-89.0444,"dy":0.0017,"dx":0.0017,"nx":28,"ny":28,"refTime":"2024-06-20T21:00:00:Z","depth":0,"parameterNumber":3,"parameterNumberName":"V-component_of_WINDS"},"data":[0,0,0,0,0,0,0,0,0,0,0,0,0,0,0,0,0,0,0,0,0,0,0,0,0,0,0,0,0,0,0,0,0,0,0,0,0,0,0,0,0,0,0,0,0,0,0,0,0,0,0,0,0,0,0,0,0,0,3.9619,3.962,0,3.9664,3.9664,3.9665,3.9696,3.9697,3.9697,3.9697,3.9739,3.974,3.974,0,0,0,0,0,0,0,0,0,0,0,0,0,3.9559,3.956,3.9619,3.962,3.962,3.9664,3.9664,3.9665,3.9696,3.9697,3.9697,3.9697,3.9738,3.9739,3.974,0,0,0,0,0,0,0,0,0,0,0,0,0,3.9592,3.956,3.9619,3.9641,3.9644,3.9663,3.9664,3.9665,3.9696,3.9697,3.9697,3.9697,3.9738,3.9739,3.9741,3.9741,0,0,3.9745,3.9745,0,0,0,0,0,0,0,0,3.959,3.9594,3.9637,3.964,3.9643,3.9675,3.9658,3.969,3.9696,3.9676,3.9697,3.9697,3.9717,3.972,3.9727,3.9743,3.9744,3.9745,3.9745,3.9746,3.9746,0,0,0,0,0,0,0,3.9588,3.9593,3.9637,3.9638,3.9641,3.9648,3.9653,3.9664,3.9694,3.9678,3.968,3.9685,3.9718,3.9726,3.9728,3.9745,3.9745,3.9746,3.9747,3.9747,3.9763,3.9763,0,0,0,0,0,0,3.9583,3.959,3.9635,3.9638,3.9617,3.9649,3.9655,3.9664,3.9694,3.9699,3.9685,3.9687,3.9724,3.9727,3.973,3.9733,3.9746,3.9747,3.9748,3.9764,3.9763,3.9763,0,0,0,0,0,0,3.9581,3.9586,3.9633,3.9615,3.9622,3.965,3.966,3.9665,3.9672,3.9699,3.9704,3.9688,3.9724,3.9728,3.9738,3.9734,3.9748,3.9749,3.9764,3.9764,3.9763,3.9737,0,0,0,0,0,0,3.9579,3.9586,3.9586,3.9615,3.9622,3.9641,3.9659,3.9665,3.9675,3.9678,3.9703,3.9707,3.9725,3.9736,3.974,3.9736,3.975,3.9765,3.9764,3.9763,3.9738,3.9736,3.9734,0,0,0,0,0,3.9577,3.9576,3.9586,3.9591,3.9624,3.9641,3.9645,3.9667,3.9675,3.9675,3.9693,3.9706,3.9735,3.9737,3.9741,3.9738,3.9765,3.9764,3.9763,3.974,3.9736,3.9734,0,0,0,0,0,0,3.9545,3.958,3.9592,3.96,3.9618,3.9647,3.9648,3.9662,3.9677,3.9678,3.9703,3.9708,3.9716,3.9728,3.973,3.974,3.9751,3.9751,3.9732,3.9729,3.9727,3.9723,3.9751,0,0,0,0,0,3.9539,3.9551,3.9581,3.9585,3.9594,3.9619,3.9627,3.9643,3.9661,3.9668,3.9686,3.9703,3.9715,3.9723,3.9736,3.9741,3.9747,3.9741,3.9738,3.9736,3.9736,3.974,3.9738,3.976,3.976,3.976,0,0,3.9526,3.9547,3.9553,3.9579,3.9595,3.9606,3.9625,3.9636,3.9644,3.9669,3.968,3.9694,3.9714,3.9722,3.9726,3.9732,3.9731,3.9735,3.9733,3.9734,3.9739,3.9737,3.9735,3.976,3.976,3.976,0,0,3.9509,3.9526,3.9532,3.9548,3.9572,3.9589,3.959,3.9618,3.9628,3.964,3.966,3.9669,3.9691,3.9704,3.9714,3.9704,3.9717,3.9708,3.9694,3.9698,3.9696,3.9695,3.9691,3.969,3.9707,3.9707,3.9707,0,3.949,3.9509,3.9533,3.9544,3.9555,3.958,3.9586,3.96,3.9626,3.9632,3.9639,3.9668,3.9683,3.9694,3.9692,3.9699,3.9701,3.9704,3.9695,3.9694,3.9693,3.969,3.9688,3.9706,3.9706,3.9706,3.9706,0,3.9484,3.9497,3.9499,3.9525,3.9537,3.9545,3.957,3.9579,3.9593,3.961,3.9622,3.9641,3.9659,3.9663,3.9676,3.9677,3.968,3.969,3.9702,3.9689,3.9686,3.9685,3.9704,3.9704,3.9705,3.9705,0,0,3.9446,3.9488,3.9488,3.9501,3.953,3.954,3.9549,3.9568,3.9575,3.9593,3.9601,3.9619,3.963,3.9641,3.9656,3.9659,3.9651,3.967,3.9671,3.9666,3.9653,3.9644,3.9642,3.966,3.966,3.966,3.9651,0,3.9433,3.9453,3.9476,3.9487,3.9499,3.9525,3.9533,3.9551,3.9567,3.9579,3.9596,3.9609,3.9622,3.9629,3.9633,3.9651,3.9648,3.9652,3.9667,3.9668,3.9661,3.9641,3.9632,3.9623,3.965,3.965,3.965,0,3.9421,3.9439,3.9452,3.9481,3.9487,3.9494,3.9514,3.9525,3.9547,3.9558,3.9571,3.9588,3.9599,3.961,3.9625,3.9627,3.9634,3.9644,3.9644,3.9646,3.9658,3.9642,3.962,3.9619,3.9649,3.9649,3.9649,0,3.9392,3.9419,3.9431,3.9441,3.9476,3.948,3.9494,3.9516,3.9527,3.9544,3.9551,3.9568,3.9578,3.9591,3.9612,3.9618,3.9625,3.9637,3.9634,3.9633,3.9633,3.9633,3.9612,3.9639,3.9639,3.9639,3.9639,0,3.9375,3.9382,3.9419,3.9426,3.9435,3.9461,3.9469,3.9485,3.9504,3.9515,3.9537,3.9546,3.9574,3.9585,3.9602,3.9612,3.9616,3.9625,3.9629,3.9623,3.9622,3.9628,3.9629,3.9638,3.9639,3.9639,3.9639,0,3.9344,3.9369,3.9384,3.9416,3.9424,3.9429,3.9456,3.9463,3.9481,3.9494,3.9498,3.9526,3.9542,3.9565,3.9586,3.9597,3.9604,3.9611,3.9598,3.96,3.9596,3.9596,3.9578,3.9577,3.9604,3.9604,3.9604,0,3.9331,3.9337,3.9371,3.938,3.9394,3.9409,3.942,3.9447,3.9458,3.9483,3.9487,3.9505,3.9521,3.9544,3.9565,3.9582,3.959,3.9582,3.9592,3.9586,3.959,3.9589,3.959,3.9579,3.9579,3.9579,3.9578,0,3.9306,3.9319,3.9335,3.9356,3.937,3.9387,3.9406,3.9412,3.9442,3.9453,3.947,3.9482,3.9506,3.9523,3.9543,3.9557,3.9572,3.9575,3.9576,3.9569,3.9561,3.9565,3.9591,3.9575,3.9576,3.9576,3.9576,3.9576,3.9284,3.9291,3.9316,3.9334,3.9351,3.9368,3.9377,3.9398,3.9413,3.9435,3.945,3.9466,3.9488,3.9517,3.953,3.9543,3.9549,3.9549,3.9549,3.9549,3.9547,3.9559,3.9546,3.9546,3.9546,3.9547,3.9547,0,3.926,3.9278,3.9294,3.932,3.9334,3.935,3.9372,3.9382,3.9397,3.9417,3.9432,3.9452,3.9469,3.9493,3.9511,3.9517,3.9524,3.9521,3.952,3.9523,3.954,3.9538,3.9514,3.9514,3.9514,3.9514,3.9514,3.9514,3.9249,3.9262,3.9278,3.93,3.9318,3.9336,3.9347,3.9363,3.9379,3.9401,3.9416,3.9432,3.9453,3.9474,3.949,3.9496,3.9502,3.9496,3.9504,3.9519,3.9522,3.9525,3.9523,3.9497,3.9497,3.9487,3.9487,3.9487]}]]